Gage, OK

7:01 PM CST on January 24, 2017 (GMT -0600)
Gage

Weather History for KGAG - March, 2014

Change the Weather History Date:

Thursday, March 27, 2014

  Actual Average Record
Temperature  
Mean Temperature 60 °F -  
Max Temperature 73 °F 63 °F 91 °F (1971)
Min Temperature 48 °F 38 °F 9 °F (1955)
Degree Days  
Heating Degree Days 5    
Growing Degree Days 10 (Base 50)    
Moisture  
Dew Point 38 °F    
Average Humidity 50    
Maximum Humidity 86    
Minimum Humidity 19    
Precipitation  
Precipitation 0.00 in - - ()
Sea Level Pressure  
Sea Level Pressure 29.56 in    
Wind  
Wind Speed 24 mph (West)    
Max Wind Speed 32 mph    
Max Gust Speed 46 mph    
Visibility 10 miles    
Events      
Averages and records for this station are not official NWS values.
T = Trace of Precipitation, MM = Missing Value Source: NWS Daily Summary

Daily Weather History Graph

Daily Weather History Graph

Search for Another Location

Airport or City:

Trip Planner

Search our weather history database for the weather conditions in past years. The results will help you decide how hot, cold, wet, or windy it might be!

Date:

Astronomy

Mar. 27, 2014 Rise Set
Actual Time 7:32 AM CDT 7:56 PM CDT
Civil Twilight 7:06 AM CDT 8:22 PM CDT
Nautical Twilight 6:36 AM CDT 8:53 PM CDT
Astronomical Twilight 6:05 AM CDT 9:23 PM CDT
Moon 5:19 AM CDT (3/27) 4:51 PM CDT (3/27)
Length of Visible Light 13h 16m
Length of Day
12h 24m
Waning Crescent, 13% of the Moon is Illuminated
Mar 27
Waning Crescent
Mar 30
New
Apr 7
First Quarter
Apr 15
Full
Apr 22
Last Quarter

Hourly Weather History & Observations

Time (CDT) Temp. Dew Point Humidity Pressure Visibility Wind Dir Wind Speed Gust Speed Precip Events Conditions
12:53 AM 54.0 °F 48.9 °F 83% 29.49 in 10.0 mi South 32.2 mph 43.7 mph N/A   Clear
1:53 AM 54.0 °F 50.0 °F 86% 29.47 in 10.0 mi South 31.1 mph 40.3 mph N/A   Clear
2:53 AM 55.0 °F 48.9 °F 80% 29.45 in 10.0 mi South 31.1 mph 46.0 mph N/A   Clear
3:53 AM 54.0 °F 48.9 °F 83% 29.43 in 10.0 mi South 29.9 mph 39.1 mph N/A   Clear
4:53 AM 54.0 °F 48.9 °F 83% 29.45 in 10.0 mi SSW 26.5 mph 36.8 mph N/A   Clear
5:53 AM 53.1 °F 48.0 °F 83% 29.47 in 10.0 mi South 24.2 mph 29.9 mph N/A   Clear
6:53 AM 52.0 °F 48.0 °F 86% 29.47 in 10.0 mi South 24.2 mph 33.4 mph N/A   Clear
7:53 AM 51.1 °F 46.9 °F 86% 29.48 in 10.0 mi SSW 18.4 mph 31.1 mph N/A   Clear
8:53 AM 54.0 °F 43.0 °F 66% 29.48 in 10.0 mi SSW 21.9 mph 28.8 mph N/A   Clear
9:53 AM 62.1 °F 34.0 °F 35% 29.47 in 10.0 mi WSW 24.2 mph 32.2 mph N/A   Clear
10:53 AM 68.0 °F 28.0 °F 22% 29.47 in 10.0 mi West 31.1 mph 42.6 mph N/A   Clear
11:53 AM 71.1 °F 27.0 °F 19% 29.49 in 10.0 mi WNW 31.1 mph 41.4 mph N/A   Overcast
12:53 PM 71.1 °F 36.0 °F 28% 29.54 in 10.0 mi NW 25.3 mph 32.2 mph N/A   Clear
1:53 PM 70.0 °F 37.9 °F 31% 29.57 in 10.0 mi NNW 24.2 mph 29.9 mph N/A   Clear
2:53 PM 72.0 °F 37.0 °F 28% 29.58 in 10.0 mi NW 15.0 mph 23.0 mph N/A   Scattered Clouds
3:53 PM 71.1 °F 33.1 °F 25% 29.60 in 10.0 mi NNW 11.5 mph - N/A   Mostly Cloudy
4:53 PM 71.1 °F 30.0 °F 22% 29.61 in 10.0 mi North 16.1 mph - N/A   Mostly Cloudy
5:53 PM 70.0 °F 30.0 °F 23% 29.62 in 10.0 mi North 13.8 mph - N/A   Clear
6:53 PM 66.9 °F 28.9 °F 24% 29.65 in 10.0 mi North 13.8 mph - N/A   Clear
7:53 PM 62.1 °F 28.9 °F 29% 29.68 in 10.0 mi North 16.1 mph 24.2 mph N/A   Clear
8:53 PM 57.0 °F 30.0 °F 36% 29.73 in 10.0 mi NNE 12.7 mph - N/A   Clear
9:53 PM 53.1 °F 32.0 °F 45% 29.75 in 10.0 mi NE 8.1 mph - N/A   Clear
10:53 PM 48.0 °F 32.0 °F 54% 29.77 in 10.0 mi ENE 5.8 mph - N/A   Clear
11:53 PM 48.0 °F 32.0 °F 54% 29.78 in 10.0 mi ENE 6.9 mph - N/A   Clear